CW3846 Weather Reports


Display with metric or nautical units.
time (UTC)temp
F
wind
direction
speed
MPH
gust
MPH
rain 1hr
in
rain 24hr
in
rain mn
in
humidity
%
barometer
mb
20260503023530 88 0 0.0 0.0 0.00 0.00 0.00 10 1008.7
20260503023042 88 0 0.0 0.0 0.00 0.00 0.00 10 1008.7
20260503022529 88 0 0.0 0.0 0.00 0.00 0.00 10 1008.8
20260503022031 89 0 0.0 0.0 0.00 0.00 0.00 11 1008.8
20260503021548 89 0 0.0 0.0 0.00 0.00 0.00 11 1008.7
20260503021032 89 0 0.0 0.0 0.00 0.00 0.00 11 1008.8
20260503020532 89 0 0.0 0.0 0.00 0.00 0.00 11 1008.7
20260503020052 89 0 0.0 0.0 0.00 0.00 0.00 11 1008.6
20260503015531 89 0 0.0 0.0 0.00 0.00 0.00 10 1008.7
20260503015034 89 0 0.0 0.0 0.00 0.00 0.00 10 1008.6
20260503014617 89 0 0.0 0.0 0.00 0.00 0.00 10 1008.7
20260503014031 89 0 0.0 0.0 0.00 0.00 0.00 10 1008.7
20260503013532 89 0 0.0 0.0 0.00 0.00 0.00 10 1008.7
20260503013046 90 0 0.0 0.0 0.00 0.00 0.00 10 1008.8
20260503012531 90 0 0.0 0.0 0.00 0.00 0.00 10 1008.8
20260503012028 90 0 0.0 0.0 0.00 0.00 0.00 10 1008.8
20260503011547 90 0 0.0 0.0 0.00 0.00 0.00 10 1008.9
20260503011029 91 0 0.0 0.0 0.00 0.00 0.00 10 1008.9
20260503010531 91 0 0.0 0.0 0.00 0.00 0.00 10 1008.9
20260503010050 91 0 0.0 0.0 0.00 0.00 0.00 10 1008.9
20260503005531 91 0 0.0 0.0 0.00 0.00 0.00 10 1009.0
20260503005029 92 0 0.0 0.0 0.00 0.00 0.00 10 1009.1
20260503004556 92 0 0.0 0.0 0.00 0.00 0.00 10 1009.1
20260503004030 92 0 0.0 1.0 0.00 0.00 0.00 10 1009.1
20260503003530 92 0 0.0 1.0 0.00 0.00 0.00 10 1009.0
20260503003045 92 0 0.0 2.0 0.00 0.00 0.00 9 1009.0
20260503002530 93 0 0.0 2.0 0.00 0.00 0.00 9 1008.9
20260503002030 93 202 0.0 0.0 0.00 0.00 0.00 9 1009.0
20260503001559 93 0 0.0 0.0 0.00 0.00 0.00 9 1009.2
20260503001031 93 0 0.0 0.0 0.00 0.00 0.00 9 1009.1
20260503000532 94 0 0.0 1.0 0.00 0.00 0.00 9 1009.1
20260503000100 94 0 0.0 1.0 0.00 0.00 0.00 9 1009.0
20260502235530 94 0 0.0 0.0 0.00 0.00 0.00 9 1009.1
20260502235030 94 0 0.0 0.0 0.00 0.00 0.00 9 1009.1
20260502234546 94 0 0.0 2.0 0.00 0.00 0.00 8 1009.2
20260502234030 94 0 0.0 2.0 0.00 0.00 0.00 8 1009.1
20260502233529 95 0 0.0 0.0 0.00 0.00 0.00 8 1009.1
20260502233039 95 0 0.0 0.0 0.00 0.00 0.00 8 1009.2
20260502232530 95 0 0.0 0.0 0.00 0.00 0.00 9 1009.3
20260502232030 96 0 0.0 0.0 0.00 0.00 0.00 8 1009.3
20260502231544 96 0 0.0 0.0 0.00 0.00 0.00 8 1009.2
20260502231029 96 0 0.0 0.0 0.00 0.00 0.00 8 1009.2
20260502230530 96 0 0.0 0.0 0.00 0.00 0.00 8 1009.5
20260502230044 96 0 0.0 0.0 0.00 0.00 0.00 8 1009.4
20260502225532 96 0 0.0 0.0 0.00 0.00 0.00 8 1009.6
20260502225031 96 0 0.0 0.0 0.00 0.00 0.00 8 1009.8
20260502224544 96 0 0.0 0.0 0.00 0.00 0.00 8 1009.7
20260502224031 96 0 0.0 0.0 0.00 0.00 0.00 8 1009.8
20260502223529 96 0 0.0 0.0 0.00 0.00 0.00 8 1009.7
20260502223041 96 0 0.0 3.0 0.00 0.00 0.00 7 1009.9
20260502222530 96 0 0.0 4.0 0.00 0.00 0.00 8 1009.9
20260502222032 96 0 0.0 4.0 0.00 0.00 0.00 8 1009.9
20260502221544 95 0 0.0 4.0 0.00 0.00 0.00 8 1010.0
20260502221030 95 0 0.0 1.0 0.00 0.00 0.00 8 1010.2
20260502220531 96 0 0.0 1.0 0.00 0.00 0.00 8 1010.2
20260502220052 96 0 0.0 0.0 0.00 0.00 0.00 8 1010.3
20260502215530 96 0 0.0 0.0 0.00 0.00 0.00 8 1010.2
20260502215030 96 0 0.0 0.0 0.00 0.00 0.00 8 1010.4
20260502214543 96 0 0.0 2.0 0.00 0.00 0.00 8 1010.5
20260502214031 96 0 0.0 2.0 0.00 0.00 0.00 8 1010.7
20260502213529 96 0 0.0 1.0 0.00 0.00 0.00 8 1010.7
20260502213046 95 0 0.0 1.0 0.00 0.00 0.00 8 1010.9
20260502212529 95 0 0.0 1.0 0.00 0.00 0.00 8 1010.9
20260502212029 94 0 0.0 2.0 0.00 0.00 0.00 8 1011.0
20260502211558 94 63 0.0 2.0 0.00 0.00 0.00 9 1011.1
20260502211028 94 0 0.0 2.0 0.00 0.00 0.00 8 1011.1
20260502210532 94 0 0.0 2.0 0.00 0.00 0.00 8 1011.2
20260502210046 94 0 0.0 2.0 0.00 0.00 0.00 8 1011.2
20260502205531 94 0 0.0 2.0 0.00 0.00 0.00 8 1011.3
20260502205030 93 0 0.0 2.0 0.00 0.00 0.00 9 1011.3
20260502204545 93 0 0.0 4.0 0.00 0.00 0.00 9 1011.4
20260502204032 92 98 0.0 4.0 0.00 0.00 0.00 9 1011.4
20260502203530 93 113 0.0 4.0 0.00 0.00 0.00 8 1011.4
20260502203046 94 0 0.0 3.0 0.00 0.00 0.00 8 1011.6
20260502202531 94 0 0.0 4.0 0.00 0.00 0.00 8 1011.6
20260502202029 94 0 1.0 5.0 0.00 0.00 0.00 7 1011.7
20260502201542 94 0 0.0 5.0 0.00 0.00 0.00 9 1011.7
20260502201031 94 81 0.0 0.0 0.00 0.00 0.00 8 1011.8
20260502200531 94 0 0.0 0.0 0.00 0.00 0.00 8 1011.8
20260502200040 94 0 0.0 0.0 0.00 0.00 0.00 8 1011.9
20260502195531 94 0 0.0 0.0 0.00 0.00 0.00 7 1011.9
20260502195030 93 0 0.0 0.0 0.00 0.00 0.00 9 1012.0
20260502194557 93 0 0.0 1.0 0.00 0.00 0.00 9 1012.3
20260502194031 93 0 0.0 1.0 0.00 0.00 0.00 10 1012.3
20260502193540 93 0 0.0 0.0 0.00 0.00 0.00 11 1012.2
20260502193046 93 0 0.0 1.0 0.00 0.00 0.00 11 1012.3
20260502192530 93 0 0.0 1.0 0.00 0.00 0.00 11 1012.5
20260502192030 92 0 0.0 1.0 0.00 0.00 0.00 12 1012.6
20260502191546 92 0 0.0 1.0 0.00 0.00 0.00 12 1012.5
20260502191030 92 0 0.0 2.0 0.00 0.00 0.00 11 1012.7
20260502190529 91 0 0.0 2.0 0.00 0.00 0.00 12 1012.9
20260502190045 91 0 0.0 2.0 0.00 0.00 0.00 13 1013.0
20260502185530 91 0 0.0 2.0 0.00 0.00 0.00 13 1013.1
20260502185030 91 0 0.0 0.0 0.00 0.00 0.00 13 1013.1
20260502184552 91 0 0.0 1.0 0.00 0.00 0.00 14 1013.2
20260502184031 91 0 0.0 1.0 0.00 0.00 0.00 14 1013.2
20260502183530 91 0 0.0 0.0 0.00 0.00 0.00 15 1013.3
20260502183051 90 0 0.0 1.0 0.00 0.00 0.00 15 1013.3
20260502182531 90 0 0.0 1.0 0.00 0.00 0.00 15 1013.3
20260502182030 90 0 0.0 1.0 0.00 0.00 0.00 15 1013.5
20260502181546 89 0 0.0 1.0 0.00 0.00 0.00 16 1013.6
20260502181031 89 0 0.0 1.0 0.00 0.00 0.00 16 1013.6
20260502180530 89 0 0.0 1.0 0.00 0.00 0.00 16 1013.7
20260502164027 84 0 0.0 0.0 0.00 0.00 0.00 19 1013.9
20260502163533 84 0 0.0 0.0 0.00 0.00 0.00 19 1013.9
20260502163050 84 0 0.0 0.0 0.00 0.00 0.00 20 1013.9
20260502162527 83 0 0.0 0.0 0.00 0.00 0.00 20 1014.0
20260502162034 83 0 0.0 0.0 0.00 0.00 0.00 19 1013.9
20260502161545 83 0 0.0 0.0 0.00 0.00 0.00 21 1014.0
20260502161031 83 0 0.0 0.0 0.00 0.00 0.00 21 1013.9
20260502160531 83 0 0.0 1.0 0.00 0.00 0.00 21 1014.0
20260502152030 80 0 0.0 0.0 0.00 0.00 0.00 23 1013.5
20260502151553 79 0 0.0 0.0 0.00 0.00 0.00 22 1013.5
20260502151030 79 0 0.0 0.0 0.00 0.00 0.00 22 1013.5
20260502150530 78 0 0.0 0.0 0.00 0.00 0.00 23 1013.4
20260502130530 71 0 0.0 0.0 0.00 0.00 0.00 19 1012.2
20260502123529 71 0 0.0 0.0 0.00 0.00 0.00 20 1011.8
20260502123045 71 0 0.0 0.0 0.00 0.00 0.00 20 1011.7
20260502122530 71 0 0.0 0.0 0.00 0.00 0.00 20 1011.7
20260502122035 71 0 0.0 0.0 0.00 0.00 0.00 20 1011.7
20260502121551 71 0 0.0 0.0 0.00 0.00 0.00 20 1011.5
20260502121034 71 0 0.0 1.0 0.00 0.00 0.00 20 1011.5
20260502120531 71 0 0.0 1.0 0.00 0.00 0.00 20 1011.5
20260502115530 71 0 0.0 1.0 0.00 0.00 0.00 19 1011.5
20260502115030 71 0 0.0 1.0 0.00 0.00 0.00 19 1011.5
20260502114602 71 0 0.0 0.0 0.00 0.00 0.00 19 1011.5
20260502114033 72 0 0.0 0.0 0.00 0.00 0.00 20 1011.5
20260502113530 72 0 0.0 0.0 0.00 0.00 0.00 19 1011.4
20260502113048 72 0 0.0 0.0 0.00 0.00 0.00 19 1011.4
20260502112532 72 0 0.0 0.0 0.00 0.00 0.00 20 1011.4
20260502112030 72 0 0.0 6.0 0.00 0.00 0.00 20 1011.3
20260502111550 72 0 0.0 6.0 0.00 0.00 0.00 21 1011.3
20260502111030 71 0 0.0 4.0 0.00 0.00 0.00 21 1011.2
20260502110530 71 0 0.0 4.0 0.00 0.00 0.00 21 1011.2
20260502110044 71 98 0.0 3.0 0.00 0.00 0.00 22 1011.1
20260502105531 71 113 0.0 3.0 0.00 0.00 0.00 22 1011.1
20260502105030 71 108 1.0 2.0 0.00 0.00 0.00 21 1011.2
20260502104548 72 0 0.0 0.0 0.00 0.00 0.00 21 1011.3
20260502104031 72 0 0.0 0.0 0.00 0.00 0.00 21 1011.4
20260502103531 73 0 0.0 0.0 0.00 0.00 0.00 21 1011.3
20260502103040 73 0 0.0 0.0 0.00 0.00 0.00 21 1011.2
20260502102533 73 0 0.0 0.0 0.00 0.00 0.00 20 1011.2
20260502102032 73 0 0.0 0.0 0.00 0.00 0.00 20 1011.2
20260502101612 72 0 0.0 0.0 0.00 0.00 0.00 20 1011.0
20260502101032 72 0 0.0 0.0 0.00 0.00 0.00 20 1011.0
20260502100530 72 0 0.0 2.0 0.00 0.00 0.00 20 1010.8
20260502091032 71 0 0.0 0.0 0.00 0.00 0.00 18 1010.7
20260502090530 70 0 0.0 0.0 0.00 0.00 0.00 18 1010.7
20260502090104 70 0 0.0 0.0 0.00 0.00 0.00 18 1010.8
20260502071030 75 0 0.0 0.0 0.00 0.00 0.00 14 1010.5
20260502070529 75 0 0.0 0.0 0.00 0.00 0.00 14 1010.3
20260502070055 75 0 0.0 0.0 0.00 0.00 0.00 14 1010.3
20260502065530 75 0 0.0 0.0 0.00 0.00 0.00 14 1010.2
20260502065031 76 0 0.0 0.0 0.00 0.00 0.00 14 1010.2
20260502064548 76 0 0.0 0.0 0.00 0.00 0.00 14 1010.2
20260502064029 76 0 0.0 0.0 0.00 0.00 0.00 14 1010.2
20260502063529 76 0 0.0 0.0 0.00 0.00 0.00 14 1010.4
20260502063042 76 0 0.0 0.0 0.00 0.00 0.00 14 1010.3
20260502062535 76 0 0.0 0.0 0.00 0.00 0.00 13 1010.2
20260502062032 76 0 0.0 0.0 0.00 0.00 0.00 14 1010.3
20260502061545 76 0 0.0 0.0 0.00 0.00 0.00 14 1010.3
20260502061030 76 0 0.0 0.0 0.00 0.00 0.00 13 1010.3
20260502060530 76 0 0.0 0.0 0.00 0.00 0.00 13 1010.3
20260502060052 76 0 0.0 0.0 0.00 0.00 0.00 13 1010.3
20260502055532 76 0 0.0 0.0 0.00 0.00 0.00 13 1010.3
20260502055034 76 0 0.0 0.0 0.00 0.00 0.00 13 1010.1
20260502054543 76 0 0.0 0.0 0.00 0.00 0.00 13 1010.2
20260502054029 76 0 0.0 0.0 0.00 0.00 0.00 13 1010.1
20260502053530 76 0 0.0 0.0 0.00 0.00 0.00 13 1010.1
20260502053049 76 0 0.0 0.0 0.00 0.00 0.00 13 1010.2
20260502052532 76 0 0.0 0.0 0.00 0.00 0.00 13 1010.1
20260502052032 76 0 0.0 0.0 0.00 0.00 0.00 12 1010.1
20260502051604 77 0 0.0 0.0 0.00 0.00 0.00 12 1010.0
20260502051030 77 0 0.0 0.0 0.00 0.00 0.00 12 1010.1
20260502050533 77 0 0.0 0.0 0.00 0.00 0.00 13 1010.0
20260502050047 77 0 0.0 0.0 0.00 0.00 0.00 13 1010.0
20260502045530 77 0 0.0 0.0 0.00 0.00 0.00 13 1009.9
20260502045031 78 0 0.0 0.0 0.00 0.00 0.00 13 1009.9
20260502044546 78 0 0.0 0.0 0.00 0.00 0.00 12 1009.8
20260502044030 78 0 0.0 0.0 0.00 0.00 0.00 12 1009.8
20260502043531 79 0 0.0 0.0 0.00 0.00 0.00 12 1009.8
20260502043044 79 0 0.0 0.0 0.00 0.00 0.00 12 1009.7
20260502042529 79 0 0.0 0.0 0.00 0.00 0.00 12 1009.7
20260502042029 79 0 0.0 0.0 0.00 0.00 0.00 12 1009.6
20260502041541 79 0 0.0 0.0 0.00 0.00 0.00 12 1009.5
20260502041030 80 0 0.0 0.0 0.00 0.00 0.00 11 1009.4
20260502040534 80 0 0.0 0.0 0.00 0.00 0.00 11 1009.4
20260502040056 80 0 0.0 0.0 0.00 0.00 0.00 11 1009.4
20260502035531 80 0 0.0 0.0 0.00 0.00 0.00 11 1009.3
20260502035030 81 0 0.0 0.0 0.00 0.00 0.00 11 1009.3
20260502034545 81 0 0.0 0.0 0.00 0.00 0.00 11 1009.2
20260502034032 81 0 0.0 0.0 0.00 0.00 0.00 11 1009.2
20260502033530 82 0 0.0 0.0 0.00 0.00 0.00 11 1009.1
20260502033044 82 0 0.0 0.0 0.00 0.00 0.00 10 1009.1
20260502032531 83 0 0.0 0.0 0.00 0.00 0.00 10 1009.0
20260502032030 83 0 0.0 0.0 0.00 0.00 0.00 10 1009.0
20260502031552 84 0 0.0 0.0 0.00 0.00 0.00 10 1009.0
20260502031031 84 0 0.0 0.0 0.00 0.00 0.00 10 1008.9
20260502030531 85 0 0.0 0.0 0.00 0.00 0.00 10 1008.8
20260502030047 85 0 0.0 0.0 0.00 0.00 0.00 10 1008.8
20260502025531 85 0 0.0 0.0 0.00 0.00 0.00 10 1008.7
20260502025029 85 0 0.0 0.0 0.00 0.00 0.00 10 1008.6
20260502024546 86 0 0.0 0.0 0.00 0.00 0.00 10 1008.6
20260502024031 86 0 0.0 0.0 0.00 0.00 0.00 10 1008.6